Weather History for KF44 - July, 2013

Change the Weather History Date:

Tuesday, July 30, 2013

  Actual Average (KTYR) Record (KTYR)
Temperature  
Mean Temperature 86 °F 84 °F  
Max Temperature 96 °F 94 °F 107 °F (1930)
Min Temperature 75 °F 74 °F 61 °F (1984)
Degree Days  
Heating Degree Days 0 0  
Month to date heating degree days 0  
Since 1 June heating degree days 0  
Since 1 July heating degree days 0  
Cooling Degree Days 20 19  
Month to date cooling degree days 539  
Year to date cooling degree days 1341  
Since 1 June cooling degree days 972  
Growing Degree Days 36 (Base 50)    
Moisture  
Dew Point 68 °F    
Average Humidity 60    
Maximum Humidity 89    
Minimum Humidity 32    
Precipitation  
Precipitation 0.00 in 0.07 in 2.05 in (1903)
Month to date precipitation 2.58  
Year to date precipitation 26.34  
Snow  
Snow 0.00 in - - ()
Month to date snowfall  
Since 1 June snowfall  
Since 1 July snowfall  
Snow Depth -    
Sea Level Pressure  
Sea Level Pressure 30.03 in    
Wind  
Wind Speed 8 mph (South)    
Max Wind Speed 16 mph    
Max Gust Speed 23 mph    
Visibility 10 miles    
Events      
T = Trace of Precipitation, MM = Missing Value Source: NWS Daily Summary

Daily Weather History Graph

Daily Weather History Graph

Search for Another Location

Airport or City:

Trip Planner

Search our weather history database for the weather conditions in past years. The results will help you decide how hot, cold, wet, or windy it might be!

Date:

Astronomy

Jul. 30, 2013 Rise Set
Actual Time 6:37 AM CDT 8:21 PM CDT
Civil Twilight 6:10 AM CDT 8:48 PM CDT
Nautical Twilight 5:38 AM CDT 9:20 PM CDT
Astronomical Twilight 5:03 AM CDT 9:54 PM CDT
Moon 12:52 AM CDT (7/30) 2:44 PM CDT (7/30)
Length of Visible Light 14h 38m
Length of Day
13h 44m
Last Quarter, 41% of the Moon is Illuminated
Jul 30
Last Quarter
Aug 6
New
Aug 14
First Quarter
Aug 20
Full
Aug 28
Last Quarter

Hourly Weather History & Observations

Time (CDT) Temp. Heat Index Dew Point Humidity Pressure Visibility Wind Dir Wind Speed Gust Speed Precip Events Conditions
12:15 AM 80.6 °F 83.2 °F 68.0 °F 65% 30.02 in 10.0 mi South 9.2 mph - N/A   Clear
12:35 AM 80.6 °F 83.2 °F 68.0 °F 65% 30.02 in 10.0 mi South 9.2 mph 16.1 mph N/A   Clear
12:55 AM 80.6 °F 82.7 °F 66.2 °F 61% 30.02 in 10.0 mi South 10.4 mph - N/A   Clear
1:15 AM 80.6 °F 82.3 °F 64.4 °F 58% 30.03 in 10.0 mi South 10.4 mph - N/A   Clear
1:35 AM 80.6 °F 82.3 °F 64.4 °F 58% 30.02 in 10.0 mi South 11.5 mph 17.3 mph N/A   Clear
1:55 AM 80.6 °F 82.3 °F 64.4 °F 58% 30.03 in 10.0 mi South 8.1 mph - N/A   Clear
2:15 AM 78.8 °F - 64.4 °F 61% 30.03 in 10.0 mi South 9.2 mph - N/A   Clear
2:35 AM 78.8 °F - 64.4 °F 61% 30.03 in 10.0 mi South 8.1 mph - N/A   Clear
2:55 AM 78.8 °F - 66.2 °F 65% 30.02 in 10.0 mi South 11.5 mph 17.3 mph N/A   Clear
3:15 AM 77.0 °F - 66.2 °F 69% 30.03 in 10.0 mi South 8.1 mph - N/A   Clear
3:35 AM 77.0 °F - 68.0 °F 74% 30.03 in 10.0 mi South 10.4 mph - N/A   Clear
3:55 AM 77.0 °F - 68.0 °F 74% 30.04 in 10.0 mi South 11.5 mph 16.1 mph N/A   Clear
4:15 AM 77.0 °F - 69.8 °F 78% 30.04 in 10.0 mi South 9.2 mph - N/A   Scattered Clouds
4:35 AM 77.0 °F - 69.8 °F 78% 30.04 in 10.0 mi South 6.9 mph - N/A   Mostly Cloudy
4:55 AM 77.0 °F - 69.8 °F 78% 30.04 in 10.0 mi South 4.6 mph - N/A   Overcast
5:15 AM 77.0 °F - 69.8 °F 78% 30.05 in 10.0 mi South 10.4 mph - N/A   Overcast
5:35 AM 75.2 °F - 69.8 °F 83% 30.05 in 10.0 mi South 8.1 mph - N/A   Overcast
5:55 AM 75.2 °F - 69.8 °F 83% 30.05 in 10.0 mi South 6.9 mph - N/A   Overcast
6:15 AM 75.2 °F - 69.8 °F 83% 30.06 in 10.0 mi South 5.8 mph - N/A   Overcast
6:35 AM 75.2 °F - 69.8 °F 83% 30.07 in 10.0 mi South 5.8 mph - N/A   Scattered Clouds
6:55 AM 75.2 °F - 69.8 °F 83% 30.08 in 10.0 mi South 4.6 mph - N/A   Mostly Cloudy
7:15 AM 75.2 °F - 71.6 °F 89% 30.09 in 10.0 mi South 4.6 mph - N/A   Overcast
7:35 AM 75.2 °F - 71.6 °F 89% 30.10 in 10.0 mi South 4.6 mph - N/A   Overcast
7:55 AM 75.2 °F - 71.6 °F 89% 30.10 in 10.0 mi Calm Calm - N/A   Overcast
8:15 AM 75.2 °F - 71.6 °F 89% 30.11 in 10.0 mi South 4.6 mph - N/A   Mostly Cloudy
8:35 AM 77.0 °F - 71.6 °F 83% 30.11 in 10.0 mi South 5.8 mph - N/A   Scattered Clouds
8:55 AM 77.0 °F - 71.6 °F 83% 30.10 in 10.0 mi South 6.9 mph - N/A   Scattered Clouds
9:15 AM 78.8 °F - 71.6 °F 78% 30.10 in 10.0 mi South 6.9 mph - N/A   Scattered Clouds
9:35 AM 80.6 °F 84.6 °F 71.6 °F 74% 30.10 in 10.0 mi SSW 6.9 mph - N/A   Mostly Cloudy
9:55 AM 80.6 °F 84.6 °F 71.6 °F 74% 30.09 in 10.0 mi SSW 8.1 mph - N/A   Mostly Cloudy
10:15 AM 80.6 °F 84.6 °F 71.6 °F 74% 30.09 in 10.0 mi SSW 8.1 mph 17.3 mph N/A   Mostly Cloudy
10:35 AM 82.4 °F 87.2 °F 71.6 °F 70% 30.09 in 10.0 mi SSW 8.1 mph 17.3 mph N/A   Scattered Clouds
10:55 AM 84.2 °F 88.4 °F 69.8 °F 62% 30.09 in 10.0 mi South 8.1 mph 21.9 mph N/A   Mostly Cloudy
11:15 AM 86.0 °F 90.4 °F 69.8 °F 58% 30.08 in 10.0 mi SSW 4.6 mph - N/A   Scattered Clouds
11:55 AM 87.8 °F 92.6 °F 69.8 °F 55% 30.07 in 10.0 mi South 12.7 mph 16.1 mph N/A   Scattered Clouds
12:15 PM 87.8 °F 92.6 °F 69.8 °F 55% 30.07 in 10.0 mi SSW 13.8 mph 20.7 mph N/A   Clear
12:35 PM 87.8 °F 92.6 °F 69.8 °F 55% 30.06 in 10.0 mi SW 9.2 mph 18.4 mph N/A   Clear
1:15 PM 91.4 °F 95.4 °F 68.0 °F 46% 30.05 in 10.0 mi South 12.7 mph 21.9 mph N/A   Clear
1:35 PM 91.4 °F 96.8 °F 69.8 °F 49% 30.04 in 10.0 mi South 16.1 mph 23.0 mph N/A   Clear
1:55 PM 91.4 °F 96.8 °F 69.8 °F 49% 30.03 in 10.0 mi South 12.7 mph 19.6 mph N/A   Clear
2:15 PM 91.4 °F 96.8 °F 69.8 °F 49% 30.02 in 10.0 mi South 10.4 mph - N/A   Clear
2:35 PM 93.2 °F 97.7 °F 68.0 °F 44% 30.02 in 10.0 mi South 8.1 mph - N/A   Clear
2:55 PM 93.2 °F 97.7 °F 68.0 °F 44% 30.02 in 10.0 mi South 10.4 mph 16.1 mph N/A   Clear
3:15 PM 95.0 °F 99.5 °F 68.0 °F 41% 30.01 in 10.0 mi South 10.4 mph 20.7 mph N/A   Clear
3:35 PM 95.0 °F 98.5 °F 66.2 °F 39% 30.01 in 10.0 mi SSW 8.1 mph 17.3 mph N/A   Clear
3:55 PM 95.0 °F 97.0 °F 64.4 °F 36% 30.00 in 10.0 mi South 15.0 mph 21.9 mph N/A   Clear
4:15 PM 96.8 °F 98.0 °F 62.6 °F 32% 29.99 in 10.0 mi SW 5.8 mph 20.7 mph N/A   Clear
4:35 PM 96.8 °F 99.0 °F 64.4 °F 34% 29.99 in 10.0 mi South 12.7 mph 17.3 mph N/A   Clear
4:55 PM 96.8 °F 99.0 °F 64.4 °F 34% 29.99 in 10.0 mi South 10.4 mph - N/A   Clear
5:15 PM 96.8 °F 99.0 °F 64.4 °F 34% 29.99 in 10.0 mi South 10.4 mph 16.1 mph N/A   Clear
5:35 PM 95.0 °F 96.0 °F 62.6 °F 34% 29.99 in 10.0 mi South 9.2 mph - N/A   Clear
5:55 PM 95.0 °F 96.0 °F 62.6 °F 34% 29.98 in 10.0 mi South 6.9 mph - N/A   Clear
6:15 PM 95.0 °F 96.0 °F 62.6 °F 34% 29.98 in 10.0 mi SSE 9.2 mph - N/A   Clear
6:35 PM 95.0 °F 96.0 °F 62.6 °F 34% 29.97 in 10.0 mi South 8.1 mph - N/A   Clear
6:55 PM 95.0 °F 96.0 °F 62.6 °F 34% 29.97 in 10.0 mi South 8.1 mph - N/A   Clear
7:15 PM 93.2 °F 94.1 °F 62.6 °F 36% 29.96 in 10.0 mi South 5.8 mph - N/A   Clear
7:35 PM 91.4 °F 93.2 °F 64.4 °F 41% 29.97 in 10.0 mi South 3.5 mph - N/A   Clear
7:55 PM 89.6 °F 91.1 °F 64.4 °F 43% 29.97 in 10.0 mi SE 3.5 mph - N/A   Clear
8:15 PM 87.8 °F 90.4 °F 66.2 °F 49% 29.97 in 10.0 mi Calm Calm - N/A   Clear
8:35 PM 86.0 °F 89.4 °F 68.0 °F 55% 29.98 in 10.0 mi Calm Calm - N/A   Clear
8:55 PM 82.4 °F 85.4 °F 68.0 °F 62% 29.98 in 10.0 mi Calm Calm - N/A   Clear
9:15 PM 80.6 °F 83.2 °F 68.0 °F 65% 29.99 in 10.0 mi Calm Calm - N/A   Clear
9:35 PM 80.6 °F 83.2 °F 68.0 °F 65% 29.99 in 10.0 mi Calm Calm - N/A   Clear
9:55 PM 78.8 °F - 68.0 °F 69% 29.99 in 10.0 mi Calm Calm - N/A   Clear
10:15 PM 78.8 °F - 66.2 °F 65% 30.00 in 10.0 mi Calm Calm - N/A   Clear
10:35 PM 78.8 °F - 68.0 °F 69% 30.01 in 10.0 mi Calm Calm - N/A   Clear
10:55 PM 80.6 °F 82.3 °F 64.4 °F 58% 30.01 in 10.0 mi South 4.6 mph - N/A   Clear
11:15 PM 80.6 °F 82.3 °F 64.4 °F 58% 30.01 in 10.0 mi SSE 5.8 mph - N/A   Clear
11:35 PM 80.6 °F 82.3 °F 64.4 °F 58% 30.01 in 10.0 mi South 4.6 mph - N/A   Clear
11:55 PM 82.4 °F 83.9 °F 64.4 °F 54% 30.02 in 10.0 mi South 6.9 mph - N/A   Clear